Time,TemperatureF,DewpointF,PressureIn,WindDirection,WindDirectionDegrees,WindSpeedMPH,WindSpeedGustMPH,Humidity,HourlyPrecipIn,Conditions,Clouds,dailyrainin,SolarRadiationWatts/m^2,SoftwareType,DateUTC
2013-08-19 00:00:00,81.7,79.2,30.09,ESE,112,4.0,7.0,92,0.00,,---,0.00,0.00,VWS V14.01,2013-08-19 04:00:00,
2013-08-19 00:08:00,81.6,79.0,30.09,East,101,5.0,5.0,92,0.00,,,0.00,0,weatherlink.com 1.10,2013-08-19 04:08:00,
2013-08-19 00:23:00,81.6,79.0,30.09,ESE,111,2.0,4.0,92,0.00,,,0.00,0,weatherlink.com 1.10,2013-08-19 04:23:00,
2013-08-19 00:30:00,81.6,79.1,30.08,ESE,112,3.0,6.0,92,0.00,,---,0.00,0.00,VWS V14.01,2013-08-19 04:30:00,
2013-08-19 00:38:00,81.5,79.0,30.08,ESE,104,2.0,4.0,92,0.00,,,0.00,0,weatherlink.com 1.10,2013-08-19 04:38:00,
2013-08-19 00:53:00,81.4,79.0,30.08,SE,141,3.0,4.0,92,0.00,,,0.00,0,weatherlink.com 1.10,2013-08-19 04:53:00,
2013-08-19 01:00:00,81.4,78.9,30.07,SE,135,2.0,5.0,92,0.00,,---,0.00,0.00,VWS V14.01,2013-08-19 05:00:00,
2013-08-19 01:08:00,81.4,79.0,30.07,East,101,1.0,3.0,92,0.00,,,0.00,0,weatherlink.com 1.10,2013-08-19 05:08:00,
2013-08-19 01:23:00,81.4,79.0,30.07,ESE,114,0.0,3.0,93,0.00,,,0.00,0,weatherlink.com 1.10,2013-08-19 05:23:00,
2013-08-19 01:30:00,81.3,79.1,30.07,ESE,112,1.0,4.0,93,0.00,,---,0.00,0.00,VWS V14.01,2013-08-19 05:30:00,
2013-08-19 01:38:00,81.3,79.0,30.07,ESE,114,1.0,4.0,93,0.00,,,0.00,0,weatherlink.com 1.10,2013-08-19 05:38:00,
2013-08-19 01:53:00,81.3,79.0,30.06,ESE,114,1.0,3.0,93,0.00,,,0.00,0,weatherlink.com 1.10,2013-08-19 05:53:00,
2013-08-19 02:00:00,81.2,79.0,30.06,ESE,112,2.0,4.0,93,0.00,,---,0.00,0.00,VWS V14.01,2013-08-19 06:00:00,
2013-08-19 02:08:00,81.2,79.0,30.06,ESE,113,2.0,4.0,93,0.00,,,0.00,0,weatherlink.com 1.10,2013-08-19 06:08:00,
2013-08-19 02:23:00,81.1,79.0,30.06,ESE,113,2.0,3.0,93,0.00,,,0.00,0,weatherlink.com 1.10,2013-08-19 06:23:00,
2013-08-19 02:30:00,81.1,78.9,30.06,ESE,112,2.0,4.0,93,0.00,,---,0.00,0.00,VWS V14.01,2013-08-19 06:30:00,
2013-08-19 02:38:00,81.2,79.0,30.05,ESE,113,0.0,3.0,93,0.00,,,0.00,0,weatherlink.com 1.10,2013-08-19 06:38:00,
2013-08-19 02:53:00,81.0,79.0,30.05,ESE,109,2.0,4.0,93,0.00,,,0.00,0,weatherlink.com 1.10,2013-08-19 06:53:00,
2013-08-19 03:00:00,81.0,78.8,30.05,ESE,112,1.0,4.0,93,0.00,,---,0.00,0.00,VWS V14.01,2013-08-19 07:00:00,
2013-08-19 03:08:00,81.0,79.0,30.04,ESE,109,1.0,4.0,93,0.00,,,0.00,0,weatherlink.com 1.10,2013-08-19 07:08:00,
2013-08-19 03:23:00,81.0,79.0,30.04,ENE,61,2.0,3.0,94,0.00,,,0.00,0,weatherlink.com 1.10,2013-08-19 07:23:00,
2013-08-19 03:30:00,81.0,79.1,30.04,ESE,112,1.0,4.0,94,0.00,,---,0.00,0.00,VWS V14.01,2013-08-19 07:30:00,
2013-08-19 03:39:00,80.9,79.0,30.03,NE,36,1.0,3.0,94,0.00,,,0.00,0,weatherlink.com 1.10,2013-08-19 07:39:00,
2013-08-19 03:53:00,80.9,79.0,30.03,SE,124,2.0,6.0,94,0.00,,,0.00,0,weatherlink.com 1.10,2013-08-19 07:53:00,
2013-08-19 04:00:00,80.7,78.5,30.03,NE,45,2.0,6.0,93,0.00,,---,0.00,0.00,VWS V14.01,2013-08-19 08:00:00,
2013-08-19 04:08:00,79.7,77.0,30.02,SSE,153,4.0,7.0,91,0.00,,,0.00,0,weatherlink.com 1.10,2013-08-19 08:08:00,
2013-08-19 04:23:00,79.9,77.0,30.02,WSW,258,4.0,9.0,90,0.00,,,0.00,0,weatherlink.com 1.10,2013-08-19 08:23:00,
2013-08-19 04:30:00,79.9,76.4,30.02,SE,135,4.0,9.0,89,0.00,,---,0.00,0.00,VWS V14.01,2013-08-19 08:30:00,
2013-08-19 04:38:00,80.2,76.0,30.02,West,263,4.0,5.0,88,0.00,,,0.00,0,weatherlink.com 1.10,2013-08-19 08:38:00,
2013-08-19 04:53:00,80.5,76.0,30.01,SSE,164,2.0,9.0,86,0.00,,,0.00,0,weatherlink.com 1.10,2013-08-19 08:53:00,
2013-08-19 05:00:00,80.7,75.8,30.01,SW,225,3.0,9.0,85,0.00,,---,0.00,0.00,VWS V14.01,2013-08-19 09:00:00,
2013-08-19 05:08:00,81.0,77.0,30.01,ENE,64,5.0,8.0,86,0.00,,,0.00,0,weatherlink.com 1.10,2013-08-19 09:08:00,
2013-08-19 05:23:00,81.1,77.0,30.01,WSW,237,3.0,10.0,88,0.00,,,0.00,0,weatherlink.com 1.10,2013-08-19 09:23:00,
2013-08-19 05:30:00,81.0,77.5,30.01,SE,135,5.0,10.0,89,0.00,,---,0.00,0.00,VWS V14.01,2013-08-19 09:30:00,
2013-08-19 05:38:00,81.0,78.0,30.01,SE,126,7.0,11.0,90,0.00,,,0.00,0,weatherlink.com 1.10,2013-08-19 09:38:00,
2013-08-19 05:53:00,80.7,78.0,30.01,East,85,8.0,11.0,91,0.00,,,0.00,0,weatherlink.com 1.10,2013-08-19 09:53:00,
2013-08-19 06:00:00,80.7,77.8,30.01,ESE,112,7.0,11.0,91,0.00,,---,0.00,0.00,VWS V14.01,2013-08-19 10:00:00,
2013-08-19 06:08:00,80.6,78.0,30.01,SE,146,6.0,11.0,91,0.00,,,0.00,0,weatherlink.com 1.10,2013-08-19 10:08:00,
2013-08-19 06:23:00,80.8,78.0,30.01,NE,49,8.0,11.0,91,0.00,,,0.00,0,weatherlink.com 1.10,2013-08-19 10:23:00,
2013-08-19 06:30:00,80.9,78.0,30.01,ESE,112,7.0,13.0,91,0.00,,---,0.00,0.00,VWS V14.01,2013-08-19 10:30:00,
2013-08-19 06:38:00,80.9,78.0,30.01,ESE,113,10.0,13.0,91,0.00,,,0.00,0,weatherlink.com 1.10,2013-08-19 10:38:00,
2013-08-19 06:53:00,80.8,78.0,30.01,ESE,109,10.0,13.0,92,0.00,,,0.00,5,weatherlink.com 1.10,2013-08-19 10:53:00,
2013-08-19 07:00:00,80.8,78.3,30.01,ESE,112,9.0,13.0,92,0.00,,---,0.00,1.00,VWS V14.01,2013-08-19 11:00:00,
2013-08-19 07:08:00,80.7,78.0,30.01,ESE,105,9.0,10.0,91,0.00,,,0.00,14,weatherlink.com 1.10,2013-08-19 11:08:00,
2013-08-19 07:23:00,81.1,79.0,30.02,East,100,15.0,15.0,92,0.00,,,0.00,35,weatherlink.com 1.10,2013-08-19 11:23:00,
2013-08-19 07:30:00,81.2,78.3,30.02,ESE,112,9.0,16.0,91,0.00,,---,0.00,25.00,VWS V14.01,2013-08-19 11:30:00,
2013-08-19 07:39:00,81.4,79.0,30.02,ESE,103,12.0,15.0,91,0.00,,,0.00,74,weatherlink.com 1.10,2013-08-19 11:39:00,
2013-08-19 07:54:00,81.4,79.0,30.03,ESE,103,10.0,14.0,91,0.00,,,0.00,132,weatherlink.com 1.10,2013-08-19 11:54:00,
2013-08-19 08:00:00,81.5,78.6,30.03,ESE,112,12.0,16.0,91,0.00,,---,0.00,95.00,VWS V14.01,2013-08-19 12:00:00,
2013-08-19 08:09:00,81.8,79.0,30.03,ESE,105,10.0,13.0,90,0.00,,,0.00,190,weatherlink.com 1.10,2013-08-19 12:09:00,
2013-08-19 08:24:00,82.0,78.0,30.02,East,92,10.0,14.0,88,0.00,,,0.00,244,weatherlink.com 1.10,2013-08-19 12:24:00,
2013-08-19 08:30:00,82.1,78.2,30.02,ESE,112,10.0,14.0,88,0.00,,---,0.00,208.00,VWS V14.01,2013-08-19 12:30:00,
2013-08-19 08:39:00,82.1,78.0,30.02,East,100,11.0,13.0,88,0.00,,,0.00,299,weatherlink.com 1.10,2013-08-19 12:39:00,
2013-08-19 08:54:00,82.4,79.0,30.03,SE,131,8.0,12.0,88,0.00,,,0.00,353,weatherlink.com 1.10,2013-08-19 12:54:00,
2013-08-19 09:00:00,82.5,78.2,30.03,ESE,112,9.0,13.0,87,0.00,,---,0.00,314.00,VWS V14.01,2013-08-19 13:00:00,
2013-08-19 09:09:00,82.9,79.0,30.03,East,94,10.0,11.0,87,0.00,,,0.00,406,weatherlink.com 1.10,2013-08-19 13:09:00,
2013-08-19 09:24:00,82.7,79.0,30.03,SE,124,9.0,13.0,87,0.00,,,0.00,457,weatherlink.com 1.10,2013-08-19 13:24:00,
2013-08-19 09:30:00,82.8,78.5,30.03,ESE,112,10.0,15.0,87,0.00,,---,0.00,421.00,VWS V14.01,2013-08-19 13:30:00,
2013-08-19 09:39:00,82.9,79.0,30.03,ESE,105,10.0,13.0,88,0.00,,,0.00,508,weatherlink.com 1.10,2013-08-19 13:39:00,
2013-08-19 09:54:00,83.4,79.0,30.04,East,82,8.0,11.0,87,0.00,,,0.00,559,weatherlink.com 1.10,2013-08-19 13:54:00,
2013-08-19 10:00:00,83.5,78.9,30.04,ESE,112,9.0,15.0,86,0.00,,---,0.00,523.00,VWS V14.01,2013-08-19 14:00:00,
2013-08-19 10:09:00,83.4,79.0,30.04,ESE,116,9.0,11.0,86,0.00,,,0.00,606,weatherlink.com 1.10,2013-08-19 14:09:00,
2013-08-19 10:24:00,83.8,79.0,30.04,ESE,102,8.0,11.0,86,0.00,,,0.00,656,weatherlink.com 1.10,2013-08-19 14:24:00,
2013-08-19 10:30:00,83.9,79.3,30.05,ESE,112,9.0,13.0,86,0.00,,---,0.00,620.00,VWS V14.01,2013-08-19 14:30:00,
2013-08-19 10:39:00,83.9,79.0,30.05,ESE,107,10.0,11.0,85,0.00,,,0.00,696,weatherlink.com 1.10,2013-08-19 14:39:00,
2013-08-19 10:54:00,84.3,79.0,30.06,SE,125,7.0,11.0,84,0.00,,,0.00,737,weatherlink.com 1.10,2013-08-19 14:54:00,
2013-08-19 11:00:00,84.4,79.0,30.06,ESE,112,8.0,12.0,84,0.00,,---,0.00,708.00,VWS V14.01,2013-08-19 15:00:00,
2013-08-19 11:09:00,85.1,79.0,30.06,SE,142,5.0,9.0,83,0.00,,,0.00,779,weatherlink.com 1.10,2013-08-19 15:09:00,
2013-08-19 11:25:00,85.7,79.0,30.06,SE,126,4.0,10.0,80,0.00,,,0.00,814,weatherlink.com 1.10,2013-08-19 15:25:00,
2013-08-19 11:30:00,85.7,78.8,30.06,SE,135,6.0,10.0,80,0.00,,---,0.00,788.00,VWS V14.01,2013-08-19 15:30:00,
2013-08-19 11:40:00,85.8,79.0,30.06,ESE,103,5.0,8.0,80,0.00,,,0.00,846,weatherlink.com 1.10,2013-08-19 15:40:00,
2013-08-19 11:55:00,85.0,79.0,30.06,ESE,119,5.0,8.0,82,0.00,,,0.00,872,weatherlink.com 1.10,2013-08-19 15:55:00,
2013-08-19 12:00:00,85.0,78.9,30.06,ESE,112,6.0,8.0,82,0.00,,---,0.00,852.00,VWS V14.01,2013-08-19 16:00:00,
2013-08-19 12:10:00,85.8,79.0,30.06,East,101,6.0,9.0,80,0.00,,,0.00,895,weatherlink.com 1.10,2013-08-19 16:10:00,
2013-08-19 12:25:00,85.9,79.0,30.06,SE,132,5.0,8.0,80,0.00,,,0.00,916,weatherlink.com 1.10,2013-08-19 16:25:00,
2013-08-19 12:30:00,85.8,78.9,30.06,ESE,112,5.0,9.0,80,0.00,,---,0.00,900.00,VWS V14.01,2013-08-19 16:30:00,
2013-08-19 12:40:00,85.9,79.0,30.06,ESE,112,5.0,8.0,80,0.00,,,0.00,932,weatherlink.com 1.10,2013-08-19 16:40:00,
2013-08-19 12:55:00,85.6,79.0,30.05,SE,130,4.0,8.0,81,0.00,,,0.00,942,weatherlink.com 1.10,2013-08-19 16:55:00,
2013-08-19 13:00:00,85.7,79.2,30.05,ESE,112,6.0,8.0,81,0.00,,---,0.00,933.00,VWS V14.01,2013-08-19 17:00:00,
2013-08-19 13:10:00,85.7,79.0,30.05,ESE,111,5.0,8.0,81,0.00,,,0.00,947,weatherlink.com 1.10,2013-08-19 17:10:00,
2013-08-19 13:25:00,85.9,80.0,30.04,ESE,113,3.0,8.0,81,0.00,,,0.00,949,weatherlink.com 1.10,2013-08-19 17:25:00,
2013-08-19 13:30:00,86.1,79.6,30.04,ESE,112,6.0,8.0,81,0.00,,---,0.00,948.00,VWS V14.01,2013-08-19 17:30:00,
2013-08-19 13:40:00,85.7,79.0,30.04,SE,126,6.0,9.0,81,0.00,,,0.00,949,weatherlink.com 1.10,2013-08-19 17:40:00,
2013-08-19 13:55:00,86.1,80.0,30.04,ESE,104,4.0,8.0,81,0.00,,,0.00,947,weatherlink.com 1.10,2013-08-19 17:55:00,
2013-08-19 14:00:00,86.0,79.5,30.04,ESE,112,6.0,9.0,81,0.00,,---,0.00,949.00,VWS V14.01,2013-08-19 18:00:00,
2013-08-19 14:10:00,85.2,79.0,30.04,ESE,111,5.0,9.0,81,0.00,,,0.00,979,weatherlink.com 1.10,2013-08-19 18:10:00,
2013-08-19 14:25:00,84.9,79.0,30.03,ESE,102,8.0,10.0,82,0.00,,,0.00,366,weatherlink.com 1.10,2013-08-19 18:25:00,
2013-08-19 14:30:00,84.5,78.8,30.03,ESE,112,7.0,10.0,83,0.00,,---,0.00,809.00,VWS V14.01,2013-08-19 18:30:00,
2013-08-19 14:40:00,84.1,79.0,30.02,ESE,108,7.0,8.0,85,0.00,,,0.00,858,weatherlink.com 1.10,2013-08-19 18:40:00,
2013-08-19 14:55:00,85.0,80.0,30.01,ESE,106,7.0,8.0,84,0.00,,,0.00,946,weatherlink.com 1.10,2013-08-19 18:55:00,
2013-08-19 15:00:00,85.3,79.6,30.01,ESE,112,6.0,9.0,83,0.00,,---,0.00,804.00,VWS V14.01,2013-08-19 19:00:00,
2013-08-19 15:10:00,86.1,79.0,30.00,ESE,119,7.0,10.0,80,0.00,,,0.00,877,weatherlink.com 1.10,2013-08-19 19:10:00,
2013-08-19 15:25:00,87.4,80.0,30.01,SE,126,5.0,9.0,78,0.00,,,0.00,840,weatherlink.com 1.10,2013-08-19 19:25:00,
2013-08-19 15:30:00,87.3,79.6,30.01,ESE,112,5.0,10.0,78,0.00,,---,0.00,870.00,VWS V14.01,2013-08-19 19:30:00,
2013-08-19 15:40:00,88.2,80.0,30.00,ENE,75,4.0,6.0,77,0.00,,,0.00,809,weatherlink.com 1.10,2013-08-19 19:40:00,
2013-08-19 15:55:00,89.3,80.0,30.01,West,263,3.0,5.0,75,0.00,,,0.00,775,weatherlink.com 1.10,2013-08-19 19:55:00,
2013-08-19 16:00:00,89.3,79.9,30.01,SSW,202,3.0,9.0,74,0.00,,---,0.00,802.00,VWS V14.01,2013-08-19 20:00:00,
2013-08-19 16:10:00,89.9,80.0,30.00,West,260,4.0,5.0,72,0.00,,,0.00,742,weatherlink.com 1.10,2013-08-19 20:10:00,
2013-08-19 16:25:00,90.0,80.0,30.00,SSE,162,3.0,5.0,72,0.00,,,0.00,698,weatherlink.com 1.10,2013-08-19 20:25:00,
2013-08-19 16:30:00,90.0,80.2,30.00,SSE,158,3.0,5.0,73,0.00,,---,0.00,733.00,VWS V14.01,2013-08-19 20:30:00,
2013-08-19 16:40:00,88.6,80.0,30.00,ESE,123,7.0,9.0,76,0.00,,,0.00,647,weatherlink.com 1.10,2013-08-19 20:40:00,
2013-08-19 16:55:00,84.7,79.0,29.99,East,98,10.0,11.0,83,0.00,,,0.00,605,weatherlink.com 1.10,2013-08-19 20:55:00,
2013-08-19 17:00:00,84.4,78.3,29.99,ESE,112,7.0,12.0,82,0.00,,---,0.00,639.00,VWS V14.01,2013-08-19 21:00:00,
2013-08-19 17:10:00,84.4,80.0,29.99,SSE,161,3.0,11.0,85,0.00,,,0.00,555,weatherlink.com 1.10,2013-08-19 21:10:00,
2013-08-19 17:25:00,85.8,79.0,29.98,East,101,6.0,8.0,81,0.00,,,0.00,506,weatherlink.com 1.10,2013-08-19 21:25:00,
2013-08-19 17:38:00,84.4,78.3,29.99,ESE,112,7.0,12.0,82,0.00,,---,0.00,639.00,VWS V14.01,2013-08-19 21:38:00,
2013-08-19 17:43:00,87.0,79.3,29.99,East,79,3.0,7.0,78,0.00,,---,0.00,445.00,VWS V14.01,2013-08-19 21:43:00,
2013-08-19 17:48:00,87.3,79.6,29.98,SSE,166,3.0,7.0,78,0.00,,---,0.00,427.00,VWS V14.01,2013-08-19 21:48:00,
2013-08-19 17:53:00,87.4,79.7,29.98,SE,138,5.0,7.0,78,0.00,,---,0.00,413.00,VWS V14.01,2013-08-19 21:53:00,
2013-08-19 17:58:00,87.3,79.6,29.98,South,175,2.0,7.0,78,0.00,,---,0.00,396.00,VWS V14.01,2013-08-19 21:58:00,
2013-08-19 18:03:00,87.1,79.4,29.98,ESE,115,3.0,7.0,78,0.00,,---,0.00,376.00,VWS V14.01,2013-08-19 22:03:00,
2013-08-19 18:08:00,86.7,79.4,29.98,SE,142,3.0,7.0,79,0.00,,---,0.00,359.00,VWS V14.01,2013-08-19 22:08:00,
2013-08-19 18:13:00,86.5,79.2,29.98,South,175,3.0,7.0,79,0.00,,---,0.00,338.00,VWS V14.01,2013-08-19 22:13:00,
2013-08-19 18:18:00,86.5,79.2,29.98,South,177,4.0,8.0,79,0.00,,---,0.00,322.00,VWS V14.01,2013-08-19 22:18:00,
2013-08-19 18:23:00,86.4,79.1,29.98,SSE,151,3.0,8.0,79,0.00,,---,0.00,299.00,VWS V14.01,2013-08-19 22:23:00,
2013-08-19 18:28:00,86.3,79.4,29.98,SE,138,5.0,8.0,80,0.00,,---,0.00,276.00,VWS V14.01,2013-08-19 22:28:00,
2013-08-19 18:33:00,85.7,79.6,29.98,ESE,109,8.0,8.0,82,0.00,,---,0.00,257.00,VWS V14.01,2013-08-19 22:33:00,
2013-08-19 18:38:00,84.6,78.5,29.98,East,101,10.0,11.0,82,0.00,,---,0.00,236.00,VWS V14.01,2013-08-19 22:38:00,
2013-08-19 18:43:00,83.8,78.4,29.98,ESE,103,9.0,11.0,84,0.00,,---,0.00,220.00,VWS V14.01,2013-08-19 22:43:00,
2013-08-19 18:48:00,83.4,78.4,29.98,East,101,11.0,12.0,85,0.00,,---,0.00,202.00,VWS V14.01,2013-08-19 22:48:00,
2013-08-19 18:53:00,83.3,78.7,29.98,East,99,11.0,13.0,86,0.00,,---,0.00,183.00,VWS V14.01,2013-08-19 22:53:00,
2013-08-19 18:58:00,83.3,78.7,29.98,East,96,10.0,13.0,86,0.00,,---,0.00,160.00,VWS V14.01,2013-08-19 22:58:00,
2013-08-19 19:03:00,83.2,78.6,29.98,East,98,9.0,10.0,86,0.00,,---,0.00,135.00,VWS V14.01,2013-08-19 23:03:00,
2013-08-19 19:08:00,83.3,78.7,29.98,ESE,105,8.0,10.0,86,0.00,,---,0.00,109.00,VWS V14.01,2013-08-19 23:08:00,
2013-08-19 19:13:00,83.3,78.7,29.98,East,101,6.0,10.0,86,0.00,,---,0.00,91.00,VWS V14.01,2013-08-19 23:13:00,
2013-08-19 19:18:00,83.3,78.7,29.98,ESE,105,4.0,10.0,86,0.00,,---,0.00,83.00,VWS V14.01,2013-08-19 23:18:00,
2013-08-19 19:23:00,83.4,78.8,29.99,ESE,108,5.0,10.0,86,0.00,,---,0.00,74.00,VWS V14.01,2013-08-19 23:23:00,
2013-08-19 19:28:00,83.3,79.0,29.99,ESE,107,5.0,10.0,87,0.00,,---,0.00,39.00,VWS V14.01,2013-08-19 23:28:00,
2013-08-19 19:33:00,83.1,78.8,29.99,SE,130,5.0,8.0,87,0.00,,---,0.00,26.00,VWS V14.01,2013-08-19 23:33:00,
2013-08-19 19:38:00,83.0,78.4,29.99,SE,124,9.0,10.0,86,0.00,,---,0.00,16.00,VWS V14.01,2013-08-19 23:38:00,
2013-08-19 19:43:00,82.7,77.7,30.00,ESE,121,10.0,11.0,85,0.00,,---,0.00,9.00,VWS V14.01,2013-08-19 23:43:00,
2013-08-19 19:48:00,82.3,77.0,30.00,ESE,118,10.0,11.0,84,0.00,,---,0.00,5.00,VWS V14.01,2013-08-19 23:48:00,
2013-08-19 19:53:00,82.2,76.9,30.00,East,93,6.0,11.0,84,0.00,,---,0.00,0.00,VWS V14.01,2013-08-19 23:53:00,
2013-08-19 19:58:00,82.3,77.3,30.00,ESE,115,10.0,11.0,85,0.00,,---,0.00,0.00,VWS V14.01,2013-08-19 23:58:00,
2013-08-19 20:03:00,82.3,77.3,30.00,ESE,117,7.0,10.0,85,0.00,,---,0.00,0.00,VWS V14.01,2013-08-20 00:03:00,
2013-08-19 20:08:00,82.3,77.7,30.00,ESE,119,7.0,10.0,86,0.00,,---,0.00,0.00,VWS V14.01,2013-08-20 00:08:00,
2013-08-19 20:13:00,82.1,77.5,30.01,ESE,123,5.0,10.0,86,0.00,,---,0.00,0.00,VWS V14.01,2013-08-20 00:13:00,
2013-08-19 20:18:00,82.3,77.7,30.01,ESE,121,7.0,10.0,86,0.00,,---,0.00,0.00,VWS V14.01,2013-08-20 00:18:00,
2013-08-19 20:23:00,82.3,77.7,30.01,ESE,122,7.0,10.0,86,0.00,,---,0.00,0.00,VWS V14.01,2013-08-20 00:23:00,
2013-08-19 20:28:00,82.3,77.7,30.02,ESE,121,3.0,10.0,86,0.00,,---,0.00,0.00,VWS V14.01,2013-08-20 00:28:00,
2013-08-19 20:41:00,82.4,78.0,30.02,ESE,119,1.0,5.0,86,0.00,,,0.00,0,weatherlink.com 1.10,2013-08-20 00:41:00,
2013-08-19 20:56:00,82.6,78.0,30.01,ESE,119,3.0,5.0,87,0.00,,,0.00,0,weatherlink.com 1.10,2013-08-20 00:56:00,
2013-08-19 21:00:00,82.6,78.3,30.01,ESE,112,3.0,5.0,87,0.00,,---,0.00,0.00,VWS V14.01,2013-08-20 01:00:00,
2013-08-19 21:11:00,82.4,79.0,30.02,ESE,119,3.0,4.0,88,0.00,,,0.00,0,weatherlink.com 1.10,2013-08-20 01:11:00,
2013-08-19 21:26:00,82.2,78.0,30.02,ESE,119,2.0,3.0,88,0.00,,,0.00,0,weatherlink.com 1.10,2013-08-20 01:26:00,
2013-08-19 21:30:00,82.1,77.8,30.02,ESE,112,3.0,4.0,87,0.00,,---,0.00,0.00,VWS V14.01,2013-08-20 01:30:00,
2013-08-19 21:41:00,82.0,78.0,30.02,ESE,119,1.0,3.0,86,0.00,,,0.00,0,weatherlink.com 1.10,2013-08-20 01:41:00,
2013-08-19 21:56:00,82.0,78.0,30.03,ESE,119,1.0,2.0,87,0.00,,,0.00,0,weatherlink.com 1.10,2013-08-20 01:56:00,
2013-08-19 22:00:00,82.0,77.8,30.03,ESE,112,1.0,3.0,87,0.00,,---,0.00,0.00,VWS V14.01,2013-08-20 02:00:00,
2013-08-19 22:11:00,81.9,77.0,30.03,ESE,119,1.0,2.0,86,0.00,,,0.00,0,weatherlink.com 1.10,2013-08-20 02:11:00,
2013-08-19 22:26:00,81.8,78.0,30.03,ESE,119,0.0,2.0,87,0.00,,,0.00,0,weatherlink.com 1.10,2013-08-20 02:26:00,
2013-08-19 22:30:00,81.8,77.6,30.03,ESE,112,1.0,3.0,87,0.00,,---,0.00,0.00,VWS V14.01,2013-08-20 02:30:00,
2013-08-19 22:41:00,81.8,78.0,30.04,ESE,119,0.0,2.0,87,0.00,,,0.00,0,weatherlink.com 1.10,2013-08-20 02:41:00,
2013-08-19 22:56:00,81.6,77.0,30.04,ESE,119,0.0,1.0,87,0.00,,,0.00,0,weatherlink.com 1.10,2013-08-20 02:56:00,
2013-08-19 23:00:00,81.6,77.4,30.05,ESE,112,0.0,2.0,87,0.00,,---,0.00,0.00,VWS V14.01,2013-08-20 03:00:00,
2013-08-19 23:11:00,81.7,78.0,30.05,ESE,119,1.0,2.0,89,0.00,,,0.00,0,weatherlink.com 1.10,2013-08-20 03:11:00,
2013-08-19 23:26:00,81.7,78.0,30.04,ESE,119,1.0,2.0,89,0.00,,,0.00,0,weatherlink.com 1.10,2013-08-20 03:26:00,
2013-08-19 23:30:00,81.7,78.2,30.04,ESE,112,1.0,2.0,89,0.00,,---,0.00,0.00,VWS V14.01,2013-08-20 03:30:00,
2013-08-19 23:41:00,81.8,79.0,30.04,ESE,119,1.0,3.0,90,0.00,,,0.00,0,weatherlink.com 1.10,2013-08-20 03:41:00,
2013-08-19 23:56:00,81.9,79.0,30.05,SE,127,3.0,3.0,90,0.00,,,0.00,0,weatherlink.com 1.10,2013-08-20 03:56:00,